Dalaman, Turkey

8:11 AM +03 on December 04, 2016 (GMT +0300)
Dalaman

Weather History for LTBS - November, 2012

Change the Weather History Date:

Saturday, November 24, 2012

  Actual Average Record
Temperature  
Mean Temperature 58 °F -  
Max Temperature 68 °F 65 °F 72 °F (2015)
Min Temperature 48 °F 47 °F 35 °F (2004)
Degree Days  
Heating Degree Days 7    
Growing Degree Days 8 (Base 50)    
Moisture  
Dew Point 48 °F    
Average Humidity 76    
Maximum Humidity 100    
Minimum Humidity 46    
Precipitation  
Precipitation 0.00 in - - ()
Sea Level Pressure  
Sea Level Pressure 30.02 in    
Wind  
Wind Speed 5 mph ()    
Max Wind Speed 8 mph    
Max Gust Speed -    
Visibility 6.2 miles    
Events      
Averages and records for this station are not official NWS values.
T = Trace of Precipitation, MM = Missing Value Source: Averaged Metar Reports

Daily Weather History Graph

Daily Weather History Graph

Search for Another Location

Airport or City:

Trip Planner

Search our weather history database for the weather conditions in past years. The results will help you decide how hot, cold, wet, or windy it might be!

Date:

Astronomy

Nov. 24, 2012 Rise Set
Actual Time 6:52 AM EET 4:50 PM EET
Civil Twilight 6:24 AM EET 5:18 PM EET
Nautical Twilight 5:52 AM EET 5:50 PM EET
Astronomical Twilight 5:21 AM EET 6:21 PM EET
Moon 2:21 PM EET (11/24) 2:55 AM EET (11/24)
Length of Visible Light 10h 54m
Length of Day
9h 58m
Waxing Gibbous, 85% of the Moon is Illuminated
Nov 24
Waxing Gibbous
Nov 28
Full
Dec 6
Last Quarter
Dec 13
New
Dec 20
First Quarter

Hourly Weather History & Observations

Time (EET) Temp. Dew Point Humidity Pressure Visibility Wind Dir Wind Speed Gust Speed Precip Events Conditions
12:20 AM 51.8 °F 44.6 °F 76% 30.04 in - ENE 6.9 mph - N/A   Clear
12:50 AM 50.0 °F 46.4 °F 87% 30.04 in - ENE 6.9 mph - N/A   Clear
1:20 AM 50.0 °F 46.4 °F 87% 30.04 in - ENE 5.8 mph - N/A   Clear
1:50 AM 50.0 °F 44.6 °F 82% 30.04 in - ENE 6.9 mph - N/A   Clear
2:00 AM 50 °F 44 °F 75% 30.04 in 6 mi ENE 6.9 mph - -   Clear
2:20 AM 50.0 °F 44.6 °F 82% 30.04 in - ENE 8.1 mph - N/A   Clear
2:50 AM 50.0 °F 44.6 °F 82% 30.04 in - ENE 4.6 mph - N/A   Clear
3:20 AM 50.0 °F 44.6 °F 82% 30.04 in - ENE 6.9 mph - N/A   Clear
3:50 AM 50.0 °F 44.6 °F 82% 30.04 in - NE 5.8 mph - N/A   Clear
4:20 AM 48.2 °F 44.6 °F 87% 30.01 in - ENE 5.8 mph - N/A   Clear
4:50 AM 50.0 °F 44.6 °F 82% 30.01 in - ENE 5.8 mph - N/A   Clear
5:20 AM 50.0 °F 44.6 °F 82% 30.01 in - ENE 6.9 mph - N/A   Clear
5:50 AM 50.0 °F 44.6 °F 82% 30.01 in - ENE 5.8 mph - N/A   Clear
6:20 AM 50.0 °F 44.6 °F 82% 30.01 in - ENE 4.6 mph - N/A   Clear
6:50 AM 51.8 °F 44.6 °F 76% 30.04 in - ENE 6.9 mph - N/A   Clear
7:20 AM 50.0 °F 44.6 °F 82% 30.04 in - East 6.9 mph - N/A   Clear
7:50 AM 51.8 °F 46.4 °F 82% 30.04 in 6.2 mi NE 5.8 mph - N/A   Mostly Cloudy
8:00 AM 51 °F 47 °F 80% 30.04 in 6 mi NE 5.8 mph - -   Scattered Clouds
8:20 AM 53.6 °F 48.2 °F 82% 30.04 in 6.2 mi ENE 5.8 mph - N/A   Mostly Cloudy
8:50 AM 55.4 °F 46.4 °F 72% 30.04 in 6.2 mi ENE 5.8 mph - N/A   Mostly Cloudy
9:20 AM 57.2 °F 46.4 °F 67% 30.04 in 6.2 mi ENE 5.8 mph - N/A   Mostly Cloudy
9:50 AM 59.0 °F 48.2 °F 67% 30.04 in 6.2 mi NE 5.8 mph - N/A   Mostly Cloudy
10:20 AM 59.0 °F 48.2 °F 67% 30.04 in 6.2 mi ENE 5.8 mph - N/A   Mostly Cloudy
10:50 AM 60.8 °F 50.0 °F 68% 30.04 in 6.2 mi NNE 8.1 mph - N/A   Mostly Cloudy
11:20 AM 62.6 °F 50.0 °F 63% 30.04 in 6.2 mi NE 5.8 mph - N/A   Mostly Cloudy
11:50 AM 64.4 °F 48.2 °F 56% 30.01 in 6.2 mi NNE 5.8 mph - N/A   Mostly Cloudy
12:20 PM 66.2 °F 48.2 °F 52% 30.01 in 6.2 mi NNE 4.6 mph - N/A   Mostly Cloudy
12:50 PM 68.0 °F 50.0 °F 52% 30.01 in 6.2 mi NNW 3.5 mph - N/A   Mostly Cloudy
1:20 PM 68.0 °F 50.0 °F 52% 29.98 in 6.2 mi Variable 2.3 mph - N/A   Mostly Cloudy
1:50 PM 66.2 °F 48.2 °F 52% 29.98 in 6.2 mi WSW 4.6 mph - N/A   Mostly Cloudy
2:00 PM 66 °F 50 °F 46% 30.00 in 6 mi WSW 4.6 mph - -   Scattered Clouds
2:20 PM 68.0 °F 50.0 °F 52% 29.98 in 6.2 mi SW 3.5 mph - N/A   Mostly Cloudy
2:50 PM 68.0 °F 50.0 °F 52% 29.98 in 6.2 mi Variable 2.3 mph - N/A   Mostly Cloudy
3:20 PM 68.0 °F 50.0 °F 52% 29.98 in 6.2 mi Variable 2.3 mph - N/A   Mostly Cloudy
3:50 PM 68.0 °F 50.0 °F 52% 29.98 in 6.2 mi SW 3.5 mph - N/A   Mostly Cloudy
4:20 PM 66.2 °F 50.0 °F 56% 29.98 in 6.2 mi West 5.8 mph - N/A   Mostly Cloudy
4:50 PM 64.4 °F 51.8 °F 64% 29.98 in 6.2 mi WNW 3.5 mph - N/A   Mostly Cloudy
5:20 PM 60.8 °F 51.8 °F 72% 29.98 in 6.2 mi East 3.5 mph - N/A   Mostly Cloudy
5:50 PM 57.2 °F 53.6 °F 88% 30.01 in 6.2 mi East 4.6 mph - N/A   Mostly Cloudy
6:20 PM 57.2 °F 51.8 °F 82% 30.01 in 6.2 mi ESE 4.6 mph - N/A   Mostly Cloudy
6:50 PM 55.4 °F 51.8 °F 88% 30.01 in 6.2 mi NNE 4.6 mph - N/A   Mostly Cloudy
7:20 PM 55.4 °F 51.8 °F 88% 30.01 in 6.2 mi NNE 5.8 mph - N/A   Mostly Cloudy
7:50 PM 55.4 °F 51.8 °F 88% 30.01 in 6.2 mi NNE 4.6 mph - N/A   Mostly Cloudy
8:00 PM 54 °F 51 °F 86% 30.03 in 6 mi NNE 4.6 mph - -   Scattered Clouds
8:20 PM 51.8 °F 50.0 °F 94% 30.01 in 6.2 mi NNE 5.8 mph - N/A   Mostly Cloudy
8:50 PM 51.8 °F 50.0 °F 94% 30.01 in 6.2 mi NNE 5.8 mph - N/A   Mostly Cloudy
9:20 PM 53.6 °F 50.0 °F 88% 30.01 in 6.2 mi East 5.8 mph - N/A   Mostly Cloudy
9:50 PM 51.8 °F 50.0 °F 94% 30.01 in 6.2 mi NE 5.8 mph - N/A   Mostly Cloudy
10:20 PM 51.8 °F 50.0 °F 94% 30.04 in 6.2 mi NE 5.8 mph - N/A   Partly Cloudy
10:50 PM 51.8 °F 50.0 °F 94% 30.01 in 6.2 mi NNE 4.6 mph - N/A   Partly Cloudy
11:20 PM 50.0 °F 50.0 °F 100% 30.04 in 6.2 mi ENE 4.6 mph - N/A   Partly Cloudy
11:50 PM 50.0 °F 48.2 °F 94% 30.04 in 6.2 mi ENE 4.6 mph - N/A   Partly Cloudy